Regional Weather Roundup
Issued by NWS

Home | Current Version | Previous Version | Graphics & Text | Print | Product List | Glossary On
Versions: 1 2 3 4 5 6 7 8 9 10 11 12 13 14 15 16 17 18 19 20 21 22 23 24 25 26 27 28 29 30 31 32 33 34 35 36 37 38 39 40 41 42 43 44 45 46 47 48 49 50
212
ASUS43 KIND 211209
RWRIN

WEATHER ROUNDUP FOR INDIANA
NATIONAL WEATHER SERVICE INDIANAPOLIS IN
700 AM EST SAT JAN 21 2017

NOTE: "FAIR" INDICATES FEW OR NO CLOUDS BELOW 12,000 FEET WITH NO
SIGNIFICANT WEATHER AND/OR OBSTRUCTIONS TO VISIBILITY.

* - STATION DOES NOT REPORT WEATHER SUCH AS PRECIPITATION OR FOG.

+ - STATION NOT QUALITY CONTROLLED BY THE NATIONAL WEATHER SERVICE.
    USE DATA WITH CAUTION...ESPECIALLY DEWPOINT AND RELATIVE
    HUMIDITY OBSERVATIONS.

INZ001>003-010>013-019-020-211300-
NORTHWEST INDIANA

CITY           SKY/WX    TMP DP  RH WIND       PRES   REMARKS
GARY /AIRPORT/ CLOUDY    50  48  93 S8        29.56F FOG
KNOX *+        CLEAR     46  39  76 S8        29.59F
LA PORTE +       N/A     47  47  99 SE6       29.59F FOG
6HR MIN TEMP:  38; 6HR MAX TEMP:  48;

MICHIGAN CITY+ CLOUDY    50  50 100 S7        29.58F
MONTICELLO +   CLEAR     47  46  95 SE3       29.60F FOG
6HR MIN TEMP:  47; 6HR MAX TEMP:  53;

RENSSELAER +   CLEAR     46  46 100 S9        29.59S FOG
VALPARAISO     PTCLDY    49  48  97 SE9       29.58F FOG
6HR MIN TEMP:  48; 6HR MAX TEMP:  50;


$$

LMZ046-743>745-211300-
SOUTHERN LAKE MICHIGAN

STATION/POSITION TIME  TEMP    WIND        PRES    WAVE
                       AIR SEA DIR/SP/G            HT
                 (UTC) (F)     (DEG/KT/KT) (MB)    (FT)
BURNS HARBOR     1140   51     160/ 10/ 17 1002.0S

$$

INZ004-005-014>016-021>024-211300-
NORTH CENTRAL INDIANA

CITY           SKY/WX    TMP DP  RH WIND       PRES   REMARKS
GOSHEN         PTCLDY    46  43  89 SE7       29.63S FOG
6HR MIN TEMP:  45; 6HR MAX TEMP:  50;

LOGANSPORT +   CLEAR     46  46 100 S9        29.63S FOG
PERU/GRISSOM   CLEAR     46  46 100 S8        29.62R
6HR MIN TEMP:  46; 6HR MAX TEMP:  52;

ROCHESTER +    CLEAR     50  50 100 SE5       29.62F FOG
SOUTH BEND     CLOUDY    48  47  96 SE9       29.61F
6HR MIN TEMP:  46; 6HR MAX TEMP:  49; 6HR PCP: TRACE;

WARSAW +       PTCLDY    46  46 100 SE5       29.63F FOG

$$

INZ006>009-017-018-025>027-211300-
NORTHEAST INDIANA

CITY           SKY/WX    TMP DP  RH WIND       PRES   REMARKS
ANGOLA *+      CLEAR     43  36  75 CALM      29.65S
AUBURN +         N/A     45  43  93 CALM      29.66S FOG
FORT WAYNE     PTCLDY    47  43  86 SE6       29.66S
6HR MIN TEMP:  47; 6HR MAX TEMP:  51;

HUNTINGTON +   PTCLDY    46  45  96 S3        29.65R
6HR MIN TEMP:  46; 6HR MAX TEMP:  50;

KENDALLVILLE + CLOUDY    45  45 100 S7        29.65R FOG

$$

INZ028-029-035-036-043>045-051>053-211300-
WEST CENTRAL INDIANA

CITY           SKY/WX    TMP DP  RH WIND       PRES   REMARKS
CRAWFORDSVL +  CLEAR     47  47 100 S8        29.64R
6HR MIN TEMP:  47; 6HR MAX TEMP:  49;

GREENCASTLE +  FOG       45  45 100 SE5       29.65R VSB 1/4
LAFAYETTE      CLEAR     49  49 100 S6        29.61F
6HR MIN TEMP:  49; 6HR MAX TEMP:  53;

TERRE HAUTE    FOG       44  42  93 E3        29.63S VSB 3/4
6HR MIN TEMP:  44; 6HR MAX TEMP:  54;


$$

INZ030>032-037>040-046>048-054>057-064-065-211300-
CENTRAL INDIANA

CITY           SKY/WX    TMP DP  RH WIND       PRES   REMARKS
CP ATTERBURY + PTCLDY    46  46 100 CALM      29.68S FOG
COLUMBUS       CLEAR     46  46 100 S7        29.69
FISHERS *+     PTCLDY    46  46 100 S7        29.67R
FRANKFORT +    CLEAR     50  48  95 S6        29.65R FOG
6HR MIN TEMP:  50; 6HR MAX TEMP:  54;

GREENWOOD *+   PTCLDY    49  49 100 S6        29.68R
6HR MIN TEMP:  49; 6HR MAX TEMP:  51;

INDIANAPOLIS   PTCLDY    48  47  96 SE7       29.66R
6HR MIN TEMP:  47; 6HR MAX TEMP:  52;

-EAGLE CREEK   CLEAR     49  47  93 S5        29.65R
6HR MIN TEMP:  49; 6HR MAX TEMP:  53;

KOKOMO +       CLEAR     47  46  97 S9        29.64F
6HR MIN TEMP:  47; 6HR MAX TEMP:  52;

MARION +       CLOUDY    46  46 100 S7        29.65F FOG
MT COMFORT *+  PTCLDY    48  46  93 S8        29.67R
SHELBYVILLE    PTCLDY    51  47  86 S9        29.67R
6HR MIN TEMP:  49; 6HR MAX TEMP:  52;

ZIONSVILLE +   PTCLDY    47  47  97 S7        29.66R FOG
6HR MIN TEMP:  47; 6HR MAX TEMP:  51;


$$

INZ033-034-041-042-049-050-058-059-211300-
EAST CENTRAL INDIANA

CITY           SKY/WX    TMP DP  RH WIND       PRES   REMARKS
MUNCIE         PTCLDY    52  48  86 S8        29.66S
6HR MIN TEMP:  52; 6HR MAX TEMP:  54;


$$

INZ060-061-067>069-081>083-085>088-211300-
SOUTHWEST INDIANA

CITY           SKY/WX    TMP DP  RH WIND       PRES   REMARKS
EVANSVILLE     PTCLDY    50  48  93 CALM      29.66F
6HR MIN TEMP:  44; 6HR MAX TEMP:  52;

HUNTINGBURG *+ CLOUDY    53  50  89 SE7       29.67F
6HR MIN TEMP:  50; 6HR MAX TEMP:  54;

WASHINGTON +   PTCLDY   N/A N/A N/A S10       29.65S

$$

INZ062-063-066-070>080-084-089>092-211300-
SOUTH CENTRAL AND SOUTHEAST INDIANA

CITY           SKY/WX    TMP DP  RH WIND       PRES   REMARKS
BLOOMINGTON    PTCLDY    49  46  90 SE7       29.66S FOG
6HR MIN TEMP:  48; 6HR MAX TEMP:  52;

MADISON *+     PTCLDY    50  46  87 S6        29.73S
NORTH VERNON + PTCLDY   N/A N/A N/A S7        29.71R
SEYMOUR +      MOCLDY    50  48  93 SE3       29.69R

$$





USA.gov is the U.S. government's official web portal to all federal, state and local government web resources and services.